Torna al catalogo

STARLINK-30896

AttivoComunicazioniVLEO
NORAD 58353·PAYLOAD·🇺🇸 United States

Lanciato Nov 18, 2023 da Cape Canaveral Space Force Station

Loading…

Prossimi Passaggi (prossime 24 ore)

TLE

AggiornatoSource: CelesTrak SupGP

Epoca: Sep 14, 2026, 20:50 UTC

1 58353C 23177C   26257.86854167  .00033514  00000+0  12138-2 0  2570
2 58353  42.9996 220.4216 0001474 262.6968 204.5253 15.27562193    10

Traccia STARLINK-30896 in tempo reale con AllMySat

Download on the App Store